Theta_e
311 316 319 318 317 315 318 316 317 316 314 313 314 313 314 315 314 315 316 316 316 324 321 329 338 345 345 347 348 346 344 343 346 348 345 342 340 338 336 338 336 339 342 341
312 316 316 316 316 317 315 316 316 316 316 315 315 314 315 316 316 316 316 316 316 316 318 318 320 331 343 347 346 346 344 342 342 343 345 344 342 341 339 338 341 342 342 342
312 312 314 317 317 317 318 315 316 316 314 315 315 316 316 316 315 315 315 316 316 316 316 317 318 319 329 336 339 340 341 342 340 339 341 343 344 343 342 340 341 343 343 342
312 312 314 317 318 318 319 317 315 315 315 316 315 316 317 317 317 316 316 316 316 315 315 316 318 319 326 335 338 338 340 341 340 339 338 341 343 343 343 342 341 340 337 336
313 313 313 317 316 317 316 316 316 317 316 316 315 316 317 316 317 317 320 320 320 317 314 315 316 318 326 334 338 338 337 338 339 338 340 342 342 339 341 339 337 335 335 334
312 313 313 316 316 316 315 316 316 316 317 318 317 316 316 318 322 323 324 326 325 326 319 314 315 315 323 333 337 337 336 336 336 337 339 340 338 336 336 336 335 335 335 332
313 315 314 316 317 316 316 317 318 317 317 317 317 317 317 325 326 325 325 325 325 325 326 322 318 318 323 328 332 334 333 332 331 331 332 332 335 336 336 334 332 329 328 328
316 315 316 318 318 319 318 318 318 318 318 317 314 317 318 326 325 324 324 324 324 324 324 324 323 325 328 330 331 331 330 329 333 336 336 334 331 329 328 327 326 326 325 324
315 315 313 317 319 319 319 319 316 316 317 317 315 324 326 327 326 324 323 324 323 321 323 324 327 328 330 331 332 333 333 334 332 331 330 329 329 327 327 326 325 324 323 323
315 317 314 319 319 318 319 318 315 317 318 317 319 324 321 330 327 324 324 323 322 321 321 321 322 326 329 330 330 329 329 328 327 326 326 326 325 324 323 322 321 320 318 316
316 318 317 320 321 321 319 319 317 316 318 320 323 323 326 330 327 326 324 322 320 318 318 317 320 322 323 323 323 322 322 321 321 320 319 318 317 315 314 313 312 312 311 311
317 320 323 323 321 320 319 318 318 318 321 326 322 330 327 328 325 324 320 317 316 315 314 316 316 316 315 315 315 314 314 315 314 314 313 313 312 311 311 311 311 310 310 310
320 321 324 324 320 320 320 319 318 319 321 326 326 330 325 326 323 318 316 314 313 312 312 311 311 311 311 312 312 312 312 312 313 312 312 312 311 311 311 310 309 308 307 306
320 321 321 325 323 320 321 319 318 318 321 324 329 328 329 326 320 316 314 313 312 311 310 310 309 309 310 311 311 311 311 311 311 310 310 309 309 308 307 306 305 305 304 305
321 323 321 321 322 321 321 319 318 317 319 320 328 329 328 324 318 314 312 311 311 310 309 308 307 308 309 309 309 310 310 310 309 308 307 307 306 305 305 304 303 304 305 307
319 324 323 323 322 321 322 319 316 316 324 326 327 329 326 319 314 314 312 311 310 308 307 306 306 306 308 308 308 308 308 307 306 306 305 304 303 303 303 303 305 306 307 307
318 323 325 326 322 321 321 319 318 320 324 327 330 325 319 316 315 313 312 310 308 307 305 304 305 307 307 307 306 306 306 305 304 302 302 302 302 302 303 305 305 305 307 307
321 323 324 325 322 324 323 324 321 324 325 325 326 322 319 316 313 311 310 308 306 303 302 303 305 305 305 305 304 304 303 302 302 302 302 302 302 303 304 304 305 307 307 307
320 322 325 327 326 326 326 324 324 324 327 325 322 314 308 306 305 302 302 302 301 302 304 304 305 305 303 301 301 301 302 302 302 303 302 302 302 302 303 304 306 307 307 307
319 320 324 325 327 324 326 323 320 323 324 314 310 308 309 313 316 303 299 301 302 302 302 303 303 301 300 300 301 301 303 303 302 302 301 301 301 302 303 304 305 307 307 307
319 320 324 324 325 325 314 315 317 325 324 311 310 311 314 314 310 300 298 298 300 300 301 300 300 300 300 299 300 302 301 301 302 302 303 302 301 302 303 304 305 307 307 307
319 321 321 323 325 328 307 317 323 316 310 311 311 306 302 300 299 297 296 299 299 298 299 299 298 298 298 299 300 300 301 301 301 301 300 301 301 302 303 304 305 307 306 306
316 312 314 312 310 305 306 309 311 310 307 305 303 301 300 298 296 296 296 296 296 297 297 294 294 294 296 297 297 297 297 298 298 298 299 300 301 302 303 304 305 306 306 306
310 308 309 309 302 303 303 303 303 303 302 300 299 298 298 299 296 295 294 293 293 292 292 292 293 295 295 294 295 295 295 297 297 299 300 300 301 301 302 304 304 306 306 305
308 307 305 304 302 301 298 298 298 298 301 302 301 301 298 295 294 294 292 292 291 291 292 293 294 294 294 294 294 295 296 297 297 298 299 299 301 301 302 303 304 305 305 305
301 307 312 308 301 299 297 297 297 300 300 299 300 296 294 294 293 292 291 291 291 291 291 292 293 293 294 294 294 294 295 295 295 296 297 298 299 300 301 301 302 304 303 303
Wind_Speed
19 13 25 33 27 17 13 11 19 11 7 17 19 14 16 13 8 13 15 10 12 18 18 15 16 21 25 29 26 24 19 17 18 20 21 24 24 23 21 18 18 21 21 17
12 28 25 20 23 20 9 13 13 9 12 13 12 15 16 12 11 13 15 15 16 19 19 16 16 16 19 24 26 24 21 18 17 17 20 21 21 18 20 19 19 21 22 23
21 12 25 22 20 24 23 13 12 10 9 5 10 9 11 10 13 11 15 16 16 19 22 23 23 22 23 21 22 22 22 20 17 17 16 18 19 19 18 19 23 23 23 27
17 23 20 26 25 23 23 20 11 9 11 7 6 4 11 15 14 10 17 14 13 15 19 20 22 25 25 23 23 22 24 24 22 18 16 18 18 16 14 15 17 19 18 18
16 16 24 24 27 24 13 20 16 10 8 3 7 5 5 5 12 11 4 2 4 9 14 18 20 20 20 24 21 19 19 20 19 16 17 17 18 17 16 17 18 15 12 11
20 14 21 24 23 24 14 21 15 7 5 8 11 8 7 7 5 5 4 2 1 0 6 14 16 15 16 17 17 15 14 13 13 13 15 16 15 14 15 15 14 14 13 14
23 19 20 19 22 22 22 25 10 10 8 7 13 10 1 2 1 2 4 4 5 6 8 10 12 14 14 14 14 12 9 9 8 8 8 6 5 6 6 5 4 2 3 7
14 17 24 20 24 19 27 25 11 14 13 12 10 10 5 2 4 6 8 10 11 14 14 15 14 13 12 12 10 10 11 13 12 10 10 11 10 9 7 4 1 3 6 9
15 16 24 21 24 22 28 24 12 5 5 9 8 3 3 4 7 9 11 14 15 16 19 23 22 21 21 21 21 21 23 25 23 19 15 12 9 6 2 1 4 6 7 7
14 12 28 17 24 24 29 24 10 7 11 12 8 7 7 11 9 11 12 16 18 20 24 26 26 27 29 30 30 29 27 24 20 15 10 7 5 2 2 4 5 5 7 9
2 9 22 17 12 27 20 21 10 5 2 6 9 6 0 12 14 15 14 17 20 24 26 28 33 33 33 31 28 26 22 20 17 14 11 8 5 4 2 2 4 6 8 11
4 2 13 10 5 23 25 25 18 7 6 2 5 4 2 12 13 18 20 23 24 26 28 31 32 30 29 28 26 24 21 19 16 13 9 6 4 3 3 5 7 10 12 15
4 2 6 10 5 4 26 27 18 6 4 6 7 6 6 15 14 19 24 25 26 27 27 26 25 24 24 24 23 20 18 16 13 9 6 4 4 5 7 10 11 14 16 17
4 3 1 3 9 10 20 25 23 11 5 8 4 14 12 14 16 18 24 25 27 27 25 25 24 22 21 21 19 17 15 12 9 6 4 4 5 7 10 12 14 15 16 17
1 7 9 7 23 21 15 25 24 13 9 4 15 22 17 17 19 24 28 28 27 26 25 22 21 19 19 18 15 13 10 7 5 3 4 6 8 10 12 14 15 15 15 15
5 3 5 12 26 20 17 17 20 15 11 13 21 16 15 22 27 27 29 28 26 24 22 21 19 17 16 14 11 8 6 5 5 7 8 10 11 12 13 13 13 11 12 12
4 2 10 4 22 19 10 13 11 7 3 20 17 14 23 20 19 24 28 27 25 22 20 18 17 15 12 9 6 5 5 7 8 9 10 10 9 9 10 10 7 7 8 11
3 4 3 5 19 8 5 4 11 11 8 5 20 25 21 25 26 21 21 27 23 21 18 17 13 10 7 4 4 6 7 8 8 9 9 9 7 7 7 4 5 5 7 10
10 3 5 4 4 8 9 11 7 8 8 16 28 24 33 36 34 22 17 19 21 19 17 12 9 4 3 4 5 5 6 7 7 8 8 6 6 5 3 4 4 4 6 9
10 9 4 5 5 6 6 7 9 7 5 10 21 25 29 33 13 6 14 19 20 16 13 8 4 3 4 4 5 6 6 5 6 7 9 8 4 3 3 3 3 4 5 7
4 4 7 6 4 5 8 14 14 5 8 23 27 28 29 8 13 27 20 18 16 11 8 5 3 3 3 5 6 5 6 6 6 5 5 5 4 3 3 2 2 3 5 8
3 3 3 2 3 4 22 11 3 11 31 30 27 22 31 35 32 25 19 17 13 10 7 5 5 7 7 7 6 6 6 6 6 5 5 4 3 1 4 1 2 3 6 8
3 3 3 5 3 6 11 14 20 25 35 27 30 27 39 34 29 25 20 16 13 10 9 8 8 8 8 9 9 9 9 8 7 5 4 3 1 0 4 1 2 3 5 7
2 6 4 3 8 9 15 22 25 27 35 34 34 32 33 39 29 25 19 16 14 12 11 9 9 10 10 9 10 10 11 10 9 7 5 3 0 1 4 2 2 3 5 9
5 6 6 8 9 19 25 24 28 34 38 39 36 34 33 29 25 23 20 16 14 12 12 11 11 11 11 10 11 11 11 11 11 9 7 4 1 2 3 4 3 4 7 10
12 1 1 3 13 19 15 24 26 42 39 33 37 30 22 24 26 22 19 16 15 14 13 13 12 11 11 10 10 11 12 12 12 10 8 5 1 3 4 4 4 5 7 10
Wind_Direction
189 192 205 203 210 227 218 193 205 191 175 194 205 205 234 248 219 237 247 233 225 228 222 234 225 218 220 221 229 232 233 225 215 217 219 226 230 230 232 232 231 239 247 251
179 220 214 211 209 215 197 200 203 193 196 195 190 216 229 222 227 228 237 240 230 230 227 227 235 235 227 220 228 236 232 221 217 221 226 231 237 243 243 238 244 265 256 266
199 204 213 205 200 205 216 203 180 156 153 197 166 209 214 213 224 220 239 235 234 230 227 225 223 221 226 229 230 230 230 224 230 243 237 239 243 253 256 251 264 271 270 282
217 225 187 193 205 197 206 203 184 173 182 196 213 210 207 217 203 207 224 226 226 219 225 231 221 225 222 223 230 234 234 232 241 251 241 242 245 248 255 262 274 280 275 276
209 202 199 199 208 199 205 180 191 187 203 198 182 220 151 177 202 205 179 155 229 231 220 222 225 228 226 227 229 233 240 242 248 245 237 240 249 252 260 275 280 278 271 282
223 207 187 201 197 188 169 166 179 163 186 235 195 212 189 180 150 144 121 78 36 104 211 212 211 219 224 227 229 230 230 228 229 228 238 242 256 268 267 266 273 270 273 290
203 213 199 193 184 183 173 158 156 180 198 216 183 192 124 121 12 200 150 106 67 68 86 129 168 189 195 203 208 210 205 199 194 191 190 193 212 237 248 245 240 245 310 303
183 203 214 183 188 177 191 178 173 176 185 170 176 195 157 70 77 109 109 97 82 76 89 104 130 144 154 157 156 158 157 154 144 138 129 121 118 124 137 150 180 300 312 313
188 205 188 191 179 168 184 192 181 137 156 160 160 152 179 137 109 107 105 96 89 91 94 101 108 117 124 128 130 133 132 126 125 124 120 118 123 126 120 274 288 299 307 307
188 190 180 183 181 193 181 175 177 178 165 169 170 175 157 168 144 124 114 107 102 102 98 98 101 109 115 120 123 125 124 122 119 117 112 112 98 64 15 349 336 329 320 316
3 201 172 170 191 183 180 185 200 122 190 165 156 156 69 155 149 131 119 109 109 103 100 101 105 108 110 112 113 111 112 110 108 105 104 101 93 77 45 342 322 312 315 316
244 35 156 177 250 193 178 187 181 173 157 82 157 122 74 134 131 126 113 113 109 104 104 106 107 107 106 105 107 104 103 102 97 92 88 85 76 49 352 329 324 324 324 321
213 148 137 147 72 357 181 186 194 126 152 170 147 148 132 123 110 115 119 117 112 108 105 103 101 98 101 103 104 103 99 92 88 81 66 40 359 332 318 319 324 323 320 321
304 152 116 182 144 147 170 185 179 187 190 156 113 139 150 134 126 127 123 120 118 112 107 103 100 100 101 103 103 99 93 86 80 68 39 355 326 316 317 318 321 323 326 329
287 160 189 231 143 161 164 179 181 181 152 175 151 154 158 147 140 137 128 125 121 113 109 105 103 103 104 103 100 96 94 93 86 50 358 326 317 314 318 324 326 331 332 334
346 127 158 141 152 172 169 173 189 186 94 95 136 124 138 126 130 136 134 131 122 118 115 111 111 110 108 103 97 86 69 43 18 350 331 324 320 316 319 328 333 340 343 347
284 205 129 103 155 152 177 169 144 125 123 144 146 150 131 136 139 143 139 131 128 126 120 117 118 115 109 100 76 44 13 350 337 325 317 313 317 323 332 341 358 4 9 359
337 104 62 108 122 142 135 26 141 121 123 133 117 139 136 130 124 125 133 132 128 125 125 121 115 105 90 59 14 351 339 329 325 322 319 316 321 332 343 26 38 46 26 10
18 54 86 105 101 121 99 118 137 154 58 143 128 124 123 121 107 78 105 120 123 125 125 118 109 93 46 7 350 340 340 341 338 336 330 317 324 338 60 71 74 45 33 11
27 26 106 139 94 141 46 100 35 131 105 124 134 137 140 146 143 133 124 127 128 130 124 114 99 30 6 1 9 8 3 4 8 5 356 328 335 4 99 77 51 31 21 2
10 12 72 92 89 87 11 326 318 203 157 149 145 143 146 130 122 136 130 122 125 119 110 98 66 38 28 38 37 31 33 25 14 356 345 335 334 20 134 75 3 13 1 360
49 359 42 76 106 131 350 322 282 117 125 137 135 124 112 118 122 124 122 121 119 109 96 96 92 74 62 57 56 45 34 15 4 360 352 328 317 345 162 146 330 356 342 358
62 359 99 26 79 16 17 75 100 122 116 120 116 121 126 124 121 123 119 116 109 105 101 86 81 74 70 59 53 41 27 18 12 8 349 325 313 170 165 186 332 342 332 354
69 18 87 126 28 50 66 80 87 104 109 115 117 122 129 125 125 117 113 108 103 97 92 90 83 76 69 62 48 38 29 24 19 12 3 345 206 142 176 177 288 324 332 340
1 4 101 90 112 75 51 76 100 106 113 116 120 122 117 119 114 115 109 105 102 97 91 91 85 78 67 56 45 37 30 23 19 14 9 3 240 180 179 227 239 304 320 325
338 275 346 86 85 102 81 91 99 106 110 116 118 112 109 112 110 111 107 105 100 95 89 84 78 72 62 52 42 34 28 23 24 27 24 16 342 192 193 215 235 267 298 314